Hourly Data Report for September 18, 2017

All times are specified in Local Standard Time (LST). Add 1 hour to adjust for Daylight Saving Time where and when it is observed.

SUSSEX FOUR CORNERS
NEW BRUNSWICK

45°44'30.048" N
65°31'44.039" W
47.00 m
8105210
71656
ASF

Download Data

Hourly Data (September 2017)
Hourly Data Report for September 18, 2017
Temp Definition
°C
Dew Point Temp Definition
°C
Rel Hum Definition
%
Wind Dir Definition
10's deg

Wind Spd Definition
km/h
Visibility Definition
km
Stn Press Definition
kPa
Hmdx Definition


Wind Chill Definition


Weather Definition


TIME
00:00 14.9 14.6 98 25 8   101.54     LegendNANA
01:00 14.7 14.5 99 20 9   101.54     LegendNANA
02:00 14.7 14.5 99 21 5   101.55     LegendNANA
03:00 14.4 14.2 99 19 10   101.53     LegendNANA
04:00 14.2 14.0 99 19 8   101.53     LegendNANA
05:00 14.2 14.1 100 15 2   101.55     LegendNANA
06:00 14.0 14.0 100 19 4   101.63     LegendNANA
07:00 14.0 13.9 100 18 5   101.66     LegendNANA
08:00 13.8 13.8 100 18 6   101.71     LegendNANA
09:00 14.9 14.8 100 21 4   101.72     LegendNANA
10:00 17.2 16.0 93 22 5   101.74     LegendNANA
11:00 19.5 16.1 81 23 5   101.71     LegendNANA
12:00 21.1 17.2 79 25 11   101.69 27   LegendNANA
13:00 21.9 17.3 75 24 10   101.66 27   LegendNANA
14:00 22.7 17.5 73 24 7   101.64 28   LegendNANA
15:00 22.5 18.1 76 23 8   101.65 29   LegendNANA
16:00 21.2 17.0 77 16 13   101.66 26   LegendNANA
17:00 20.6 16.4 77 14 9   101.69 25   LegendNANA
18:00 19.4 16.2 82 14 12   101.71     LegendNANA
19:00 18.3 15.9 86 20 4   101.71     LegendNANA
20:00 17.1 15.7 92 18 4   101.76     LegendNANA
21:00 16.9 15.7 93 20 6   101.75     LegendNANA
22:00 15.9 15.1 95 35 3   101.77     LegendNANA
23:00 15.9 15.1 95 0 1   101.77     LegendNANA

Notes on Data Quality.

Legend

  • E = Estimated
  • M = Missing
  • NA = Not Available
  • ‡ = Partner data that is not subject to review by the National Climate Archives
Date modified: